Weather History for Kaneohe MCBH, HI

Change the Weather History Date:

Sunday, September 29, 2013

  Actual Average Record
Temperature  
Mean Temperature 80 °F -  
Max Temperature 87 °F 81 °F 87 °F (2013)
Min Temperature 73 °F 71 °F 46 °F (1998)
Cooling Degree Days 15    
Growing Degree Days 30 (Base 50)    
Moisture  
Dew Point 68 °F    
Average Humidity 68    
Maximum Humidity 83    
Minimum Humidity 54    
Precipitation  
Precipitation 0.00 in - - ()
Sea Level Pressure  
Sea Level Pressure 30.02 in    
Wind  
Wind Speed 9 mph (ENE)    
Max Wind Speed 13 mph    
Max Gust Speed 21 mph    
Visibility 7 miles    
Events      
Averages and records for this station are not official NWS values.
T = Trace of Precipitation, MM = Missing Value Source: NWS Daily Summary

Daily Weather History Graph

Daily Weather History Graph

Search for Another Location

Airport:

Trip Planner

Search our weather history database for the weather conditions in past years. The results will help you decide how hot, cold, wet, or windy it might be!

Date:

Astronomy

Sep. 29, 2013 Rise Set
Actual Time 6:21 AM HST 6:20 PM HST
Civil Twilight 5:59 AM HST 6:42 PM HST
Nautical Twilight 5:33 AM HST 7:08 PM HST
Astronomical Twilight 5:08 AM HST 7:33 PM HST
Moon 1:45 AM HST (9/29) 2:53 PM HST (9/29)
Length of Visible Light 12h 42m
Length of Day
11h 58m
Waning Crescent, 25% of the Moon is Illuminated
Sep 29
Waning Crescent
Oct 4
New
Oct 11
First Quarter
Oct 18
Full
Oct 26
Last Quarter

Hourly Weather History & Observations

Time (HST) Temp. Heat Index Dew Point Humidity Pressure Visibility Wind Dir Wind Speed Gust Speed Precip Events Conditions
12:57 AM 73.4 °F - 68.0 °F 83% 30.06 in 7.0 mi East 9.2 mph 18.4 mph N/A   Scattered Clouds
1:57 AM 73.4 °F - 66.9 °F 80% 30.04 in 7.0 mi ENE 8.1 mph - N/A   Mostly Cloudy
2:57 AM 73.4 °F - 68.0 °F 83% 30.02 in 7.0 mi ENE 6.9 mph - N/A   Mostly Cloudy
3:57 AM 73.4 °F - 66.9 °F 80% 30.00 in 7.0 mi ENE 12.7 mph 20.7 mph N/A   Partly Cloudy
4:57 AM 73.4 °F - 66.9 °F 80% 30.01 in 7.0 mi ENE 10.4 mph 18.4 mph N/A   Scattered Clouds
5:57 AM 73.4 °F - 66.9 °F 80% 30.02 in 7.0 mi ENE 10.4 mph 17.3 mph N/A   Scattered Clouds
6:49 AM 75.2 °F - 66.2 °F 73% 30.05 in 6.2 mi ENE 10.4 mph - N/A   Mostly Cloudy
6:57 AM 75.2 °F - 66.0 °F 73% 30.04 in 7.0 mi ENE 8.1 mph - N/A   Mostly Cloudy
7:04 AM 77.0 °F - 66.2 °F 69% 30.05 in 6.2 mi ENE 10.4 mph - N/A   Partly Cloudy
7:57 AM 77.0 °F - 66.0 °F 69% 30.05 in 7.0 mi ENE 8.1 mph 17.3 mph N/A   Overcast
8:57 AM 79.9 °F - 66.9 °F 64% 30.06 in 7.0 mi ENE 11.5 mph 17.3 mph N/A   Mostly Cloudy
9:57 AM 81.1 °F 83.9 °F 68.0 °F 64% 30.06 in 7.0 mi ENE 10.4 mph 19.6 mph N/A   Mostly Cloudy
10:57 AM 83.3 °F 86.9 °F 69.1 °F 62% 30.05 in 7.0 mi SE 8.1 mph - N/A   Mostly Cloudy
11:57 AM 83.5 °F 86.0 °F 66.9 °F 57% 30.03 in 7.0 mi ENE 12.7 mph 17.3 mph N/A   Mostly Cloudy
12:57 PM 83.8 °F 86.5 °F 66.9 °F 57% 30.00 in 7.0 mi ENE 10.4 mph - N/A   Mostly Cloudy
1:57 PM 85.1 °F 89.1 °F 69.1 °F 59% 29.98 in 7.0 mi ENE 10.4 mph 17.3 mph N/A   Mostly Cloudy
2:57 PM 87.6 °F 91.9 °F 69.1 °F 54% 29.96 in 7.0 mi ENE 12.7 mph - N/A   Scattered Clouds
3:57 PM 85.5 °F 89.4 °F 69.1 °F 58% 29.96 in 7.0 mi ENE 9.2 mph - N/A   Scattered Clouds
4:57 PM 85.5 °F 89.4 °F 69.1 °F 58% 29.96 in 7.0 mi ENE 6.9 mph 16.1 mph N/A   Partly Cloudy
5:57 PM 85.5 °F 88.8 °F 68.0 °F 56% 29.97 in 7.0 mi NE 8.1 mph - N/A   Partly Cloudy
6:57 PM 85.5 °F 88.2 °F 66.9 °F 54% 29.98 in 7.0 mi East 5.8 mph - N/A   Partly Cloudy
7:57 PM 78.6 °F - 68.0 °F 70% 30.00 in 7.0 mi East 5.8 mph - N/A   Scattered Clouds
8:57 PM 77.9 °F - 66.9 °F 69% 30.02 in 7.0 mi ENE 9.2 mph - N/A   Mostly Cloudy
9:05 PM 78.8 °F - 68.0 °F 69% 30.03 in 6.2 mi East 6.9 mph - N/A   Mostly Cloudy
9:57 PM 77.9 °F - 68.0 °F 71% 30.02 in 7.0 mi ENE 9.2 mph - N/A   Mostly Cloudy
10:57 PM 77.7 °F - 68.0 °F 72% 30.01 in 7.0 mi ENE 8.1 mph 19.6 mph N/A   Mostly Cloudy
11:35 PM 77.0 °F - 68.0 °F 74% 30.02 in 6.2 mi Variable 6.9 mph 17.3 mph N/A   Mostly Cloudy
11:57 PM 77.5 °F - 68.0 °F 72% 30.00 in 7.0 mi East 11.5 mph 19.6 mph N/A   Mostly Cloudy